This demonstration page uses our WeatherBlox Daily Observations layout. Learn more.

Left ArrowRight Arrow

38.20091, -84.87328

Hourly Observations for August 15, 2016

Temp ( °F °C ) Dew Point ( °F °C ) Humidity (%) Winds ( mph kmh ) Pressure ( in mb ) Visibility ( mi km ) Precip ( " mm )
12:53 am 00:53 Clear 73 22.8 69 20.6 87 87 SE 3 6 30.09 1019 10 16 0.00 0.00
1:53 am 01:53 Mostly Clear 73 22.8 69 20.6 87 87 Calm 30.08 1019 10 16 0.00 0.00
2:53 am 02:53 Mostly Cloudy 74 23.3 69 20.6 85 85 Calm 30.08 1019 10 16 0.00 0.00
3:53 am 03:53 Partly Cloudy 74 23.3 69 20.6 85 85 W 5 7 30.10 1019 10 16 0.00 0.00
4:36 am 04:36 Mostly Cloudy 74 23.3 70 21.1 88 88 W 9 15 30.09 1019 10 16 0.00 0.00
4:49 am 04:49 Mostly Cloudy 73 23 70 21 89 89 WNW 7 11 30.09 1019 10 16 0.00 0.00
4:53 am 04:53 Partly Cloudy 74 23.3 69 20.6 85 85 WNW 7 11 30.11 1020 10 16 0.00 0.00
5:53 am 05:53 Clear 73 22.8 68 20 84 84 NNE 3 6 30.11 1020 10 16 0.00 0.00
6:53 am 06:53 Clear 72 22.2 68 20 87 87 NE 3 6 30.11 1020 10 16 0.00 0.00
7:53 am 07:53 Sunny 73 22.8 69 20.6 87 87 E 3 6 30.12 1020 10 16 0.00 0.00
8:53 am 08:53 Sunny 76 24.4 69 20.6 79 79 ENE 7 11 30.13 1020 10 16 0.00 0.00
9:53 am 09:53 Mostly Sunny 78 25.6 70 21.1 76 76 E 6 9 30.14 1021 10 16 0.00 0.00
10:53 am 10:53 Mostly Sunny 80 26.7 71 21.7 74 74 E 7 11 30.15 1021 10 16 0.00 0.00
11:53 am 11:53 Sunny 84 28.9 72 22.2 67 67 ESE 7 11 30.14 1021 10 16 0.00 0.00
12:17 pm 12:17 Mostly Cloudy 85 29.4 72 22.2 65 65 VRB 7 11 30.15 1021 10 16 0.00 0.00
12:24 pm 12:24 Partly Cloudy 86 30 73 22.8 65 65 SE 9 15 30.12 1020 10 16 0.00 0.00
12:53 pm 12:53 Partly Cloudy 86 30 72 22.2 63 63 SSE 9 15 30.13 1020 10 16 0.00 0.00
1:53 pm 13:53 Mostly Sunny 88 31.1 71 21.7 57 57 VRB 6 9 30.10 1019 10 16 0.00 0.00
2:53 pm 14:53 Mostly Sunny 90 32.2 72 22.2 56 56 SSE 12 19 30.07 1018 10 16 0.00 0.00
3:53 pm 15:53 Sunny 91 32.8 70 21.1 50 50 S 13 20 30.04 1017 10 16 0.00 0.00
4:53 pm 16:53 Partly Cloudy 91 32.8 69 20.6 49 49 SSW 13 20 30.03 1017 10 16 0.00 0.00
5:53 pm 17:53 Partly Cloudy 88 31.1 69 20.6 54 54 SSW 10 17 30.03 1017 10 16 0.00 0.00
6:53 pm 18:53 Sunny 85 29.4 67 19.4 55 55 SSE 9 15 30.04 1017 10 16 0.00 0.00
7:53 pm 19:53 Mostly Sunny 83 28.3 69 20.6 63 63 SE 6 9 30.04 1017 10 16 0.00 0.00
8:05 pm 20:05 Mostly Cloudy with Heavy Rain 79 26.1 72 22.2 79 79 S 9 15 30.06 1018 1 2 0.12 3.05
8:10 pm 20:10 Mostly Cloudy with Light Rain 79 26.1 72 22.2 79 79 S 8 13 30.06 1018 3 5 0.12 3.05
8:42 pm 20:42 Mostly Cloudy with Nearby Thunderstorms 79 26.1 73 22.8 82 82 SE 7 11 30.06 1018 10 16 0.12 3.05
8:53 pm 20:53 Partly Cloudy with Nearby Thunderstorms 78 25.6 73 22.8 85 85 SE 7 11 30.06 1018 10 16 0.12 3.05
9:20 pm 21:20 Mostly Clear 77 25 72 22.2 85 85 ESE 6 9 30.06 1018 10 16 0.00 0.00
9:53 pm 21:53 Clear 77 25 72 22.2 85 85 ESE 6 9 30.07 1018 10 16 0.00 0.00
10:53 pm 22:53 Clear 77 25 71 21.7 82 82 SE 7 11 30.08 1019 10 16 0.00 0.00
11:53 pm 23:53 Partly Cloudy 76 24.4 70 21.1 82 82 SE 7 11 30.08 1019 10 16 0.00 0.00

Powered by AerisWeather